#timestamp,LO_Frequency,Hit,StdDev 
1536264015.6,286046993.3,N
1536264035.4,286046992.3,N
1536264055.3,286046994.2,N
1536264075.1,286046992.3,N
1536264095.9,286046986.3,Y
1536264115.7,286046992.7,P
1536264135.5,286046990.6,P
1536264155.4,286046991.6,N
1536264175.2,286046989.5,Y
1536264195.1,286046993.5,P
1536264196.0,286046993.5,P
1536264215.8,286046995.5,P
1536264235.6,286046995.1,Y
1536264255.5,286047003.8,P
1536264275.3,286047004.0,N
1536264295.2,286047002.0,N
1536264315.9,286047002.6,N
1536264335.7,286046999.7,N
1536264355.6,286047002.6,N
1536264375.4,286047001.9,N
1536264395.2,286047000.5,N
1536264415.1,286047000.7,N
1536264416.0,286047000.7,N
1536264435.8,286046998.5,N
1536264455.7,286047000.6,N
1536264475.5,286046998.5,N
1536264495.3,286047001.1,N
1536264515.2,286047001.2,N
1536264535.0,286046998.7,N
1536264535.9,286046998.7,N
1536264555.8,286046999.4,N
1536264575.6,286046999.6,N
1536264595.4,286046996.6,N
1536264615.3,286046997.9,N
1536264635.1,286046994.1,N
1536264655.9,286046994.0,N
1536264675.7,286046994.8,N
1536264695.5,286046994.5,N
1536264715.4,286046994.1,N
1536264735.2,286046994.7,N
1536264755.1,286046993.8,N
1536264756.0,286046993.8,N
1536264775.8,286046993.4,N
1536264795.6,286046993.4,N
1536264815.5,286046996.0,N
1536264835.3,286046994.1,N
1536264855.1,286046994.4,N
1536264875.9,286046992.6,N
1536264895.7,286046993.1,N
1536264915.6,286046993.0,N
1536264935.4,286046990.1,Y
1536264955.2,286046994.1,P
1536264975.1,286046993.9,P
1536264976.0,286046993.9,P
1536264995.8,286046996.3,Y
1536265015.7,286047000.9,P
1536265035.5,286046998.6,N
1536265055.3,286046999.3,N
1536265075.2,286046997.3,N
1536265095.0,286046997.5,N
1536265095.9,286046997.5,N
1536265115.8,286046999.6,N
1536265135.6,286046999.6,N
1536265155.4,286046997.7,N
1536265175.3,286046996.3,N
1536265195.1,286046997.6,N
1536265215.8,286046997.5,N
1536265235.7,286046996.0,N
1536265255.5,286046995.7,N
1536265275.4,286046995.5,N
1536265295.2,286046993.4,Y
1536265315.0,286046999.4,P
1536265315.9,286046999.4,N
1536265335.8,286046998.7,N
1536265355.6,286046996.5,Y
1536265375.5,286046996.9,P
1536265395.3,286046999.6,N
1536265415.1,286046996.9,N
1536265435.9,286046999.3,N
1536265455.7,286047000.5,N
1536265475.6,286046999.1,N
1536265495.4,286046998.9,N
1536265515.2,286046999.3,N
1536265535.1,286046999.0,N
1536265536.0,286046999.0,N
1536265555.8,286046999.5,N
1536265575.7,286046996.7,Y
1536265595.5,286046997.0,P
1536265615.3,286046996.5,P
1536265635.2,286046999.0,N
1536265655.0,286046998.7,N
1536265655.9,286046998.7,N
1536265675.7,286046999.0,N
1536265695.6,286046999.6,N
1536265715.4,286046996.8,Y
1536265735.3,286047002.8,P
1536265755.1,286046999.7,N
1536265775.8,286047001.1,N
1536265795.7,286047000.9,N
1536265815.5,286046998.3,N
1536265835.4,286047001.0,N
1536265855.2,286046998.1,N
1536265875.0,286046998.3,N
1536265875.9,286046998.3,N
1536265895.8,286046999.2,N
1536265915.6,286046998.9,N
1536265935.4,286047000.9,N
1536265955.3,286047000.3,N
1536265975.1,286047002.8,N
1536265995.9,286047001.2,N
1536266015.7,286047002.5,N
1536266035.5,286047001.3,N
1536266055.4,286047001.9,N
1536266075.2,286047002.0,N
1536266095.0,286047004.2,N
1536266095.9,286047004.2,N
1536266115.8,286047002.9,N
1536266135.6,286047001.6,N
1536266155.5,286047002.1,N
1536266175.3,286047002.8,N
1536266195.1,286047000.5,N
1536266215.9,286047000.7,N
1536266235.7,286046998.3,N
1536266255.5,286046999.7,N
1536266275.4,286047000.6,N
1536266295.2,286046998.2,N
1536266315.1,286047000.5,N
1536266316.0,286047000.5,N
1536266335.8,286046998.1,N
1536266355.6,286047000.3,N
1536266375.5,286046999.9,N
1536266395.3,286047000.1,N
1536266415.2,286047000.5,N
1536266435.9,286046999.8,N
1536266455.7,286047000.4,N
1536266475.6,286047001.0,N
1536266495.4,286046998.2,N
1536266515.2,286047000.5,N
1536266535.1,286047002.7,N
1536266536.0,286047002.7,N
1536266555.8,286047000.3,N
1536266575.7,286047000.7,N
1536266595.5,286046998.1,N
1536266615.3,286047000.5,N
1536266635.2,286047001.1,N
1536266655.0,286046998.5,N
1536266655.9,286046998.5,N
1536266675.8,286046998.1,N
1536266695.6,286046998.9,N
1536266715.4,286046999.2,N
1536266735.3,286046997.2,N
1536266755.1,286046999.0,N
1536266775.8,286047000.5,N
1536266795.7,286047000.9,N
1536266815.5,286047000.3,N
1536266835.4,286047000.5,N
1536266855.2,286047001.0,N
1536266875.0,286047001.1,N
1536266875.9,286047001.1,N
1536266895.8,286046999.5,N
1536266915.6,286046998.4,N
1536266935.5,286046999.5,N
1536266955.3,286046998.8,N
1536266975.1,286046998.5,N
1536266995.9,286046998.5,N
1536267015.7,286047001.0,N
1536267035.5,286046999.9,N
1536267055.4,286047002.1,N
1536267075.2,286047000.0,N
1536267095.1,286047000.4,N
1536267096.0,286047000.4,N
1536267115.8,286047000.0,N
1536267135.6,286047000.9,N
1536267155.5,286047000.5,N
1536267175.3,286046999.9,N
1536267195.1,286047000.9,N
1536267215.9,286046998.9,N
1536267235.7,286046998.5,N
1536267255.6,286046998.1,N
1536267275.4,286047000.3,N
1536267295.2,286047000.7,N
1536267315.1,286047000.8,N
1536267316.0,286047000.8,N
1536267335.8,286047000.5,N
1536267355.7,286046998.3,N
1536267375.5,286047000.5,N
1536267395.3,286047000.6,N
1536267415.2,286047002.6,N
1536267435.0,286047000.9,N
1536267435.9,286047000.9,N
1536267455.7,286047001.2,N
1536267475.6,286047000.9,N
1536267495.4,286047000.7,N
1536267515.3,286047001.0,N
1536267535.1,286047000.1,N
1536267555.8,286047002.8,N
1536267575.7,286047002.3,N
1536267595.5,286047002.1,N
